Visibility
15.0 15.0 15.0 15.0 15.0 15.0 15.0 15.0 10.5 7.2 12.6 15.0 15.0 15.0 15.0 15.0 15.0 15.0 15.0 15.0 15.0 15.0 15.0 15.0 15.0 15.0 15.0 15.0 15.0 15.0 15.0 15.0 15.0 15.0 15.0 15.0 15.0 15.0 15.0 15.0 15.0 15.0 15.0 15.0 15.0
15.0 15.0 15.0 15.0 15.0 15.0 15.0 15.0 9.1 15.0 4.6 15.0 15.0 15.0 15.0 15.0 15.0 15.0 15.0 15.0 15.0 15.0 15.0 15.0 15.0 15.0 15.0 15.0 15.0 15.0 15.0 15.0 15.0 15.0 15.0 15.0 15.0 15.0 15.0 15.0 15.0 15.0 15.0 15.0 15.0
15.0 15.0 15.0 15.0 15.0 15.0 15.0 15.0 15.0 15.0 14.0 15.0 15.0 15.0 15.0 15.0 15.0 15.0 15.0 15.0 15.0 15.0 15.0 15.0 15.0 15.0 15.0 15.0 15.0 15.0 15.0 15.0 15.0 15.0 15.0 15.0 15.0 15.0 15.0 15.0 15.0 15.0 15.0 15.0 15.0
14.1 15.0 15.0 15.0 15.0 15.0 15.0 15.0 15.0 15.0 5.9 8.6 15.0 15.0 15.0 15.0 8.3 15.0 15.0 15.0 15.0 15.0 15.0 15.0 15.0 15.0 15.0 15.0 15.0 15.0 15.0 15.0 15.0 15.0 15.0 15.0 15.0 15.0 15.0 15.0 15.0 15.0 15.0 15.0 13.5
15.0 11.5 13.3 15.0 15.0 15.0 15.0 15.0 15.0 9.4 8.4 4.2 15.0 15.0 15.0 15.0 15.0 15.0 15.0 15.0 15.0 15.0 15.0 15.0 15.0 15.0 15.0 15.0 15.0 15.0 15.0 15.0 15.0 15.0 15.0 15.0 15.0 15.0 15.0 15.0 15.0 15.0 15.0 15.0 15.0
9.7 10.3 15.0 15.0 15.0 15.0 15.0 15.0 15.0 9.6 15.0 15.0 15.0 15.0 15.0 15.0 15.0 15.0 15.0 15.0 15.0 15.0 15.0 15.0 15.0 15.0 15.0 15.0 15.0 15.0 15.0 15.0 15.0 15.0 15.0 15.0 15.0 15.0 15.0 15.0 15.0 15.0 15.0 15.0 15.0
14.4 13.4 15.0 15.0 15.0 15.0 15.0 15.0 15.0 3.9 6.6 15.0 15.0 15.0 15.0 15.0 15.0 15.0 15.0 15.0 15.0 15.0 15.0 15.0 15.0 15.0 15.0 15.0 15.0 15.0 15.0 15.0 15.0 15.0 15.0 15.0 15.0 15.0 15.0 15.0 15.0 15.0 15.0 15.0 15.0
15.0 14.3 15.0 15.0 15.0 15.0 15.0 15.0 13.8 15.0 3.9 15.0 15.0 15.0 15.0 15.0 15.0 15.0 15.0 15.0 15.0 15.0 15.0 15.0 15.0 15.0 15.0 15.0 15.0 15.0 15.0 15.0 15.0 15.0 15.0 15.0 15.0 15.0 15.0 15.0 15.0 15.0 15.0 15.0 15.0
15.0 11.4 10.3 15.0 15.0 15.0 14.3 15.0 4.9 6.3 12.8 7.8 15.0 15.0 15.0 15.0 15.0 15.0 15.0 15.0 15.0 15.0 15.0 15.0 15.0 15.0 15.0 15.0 15.0 15.0 8.0 15.0 15.0 15.0 15.0 15.0 15.0 15.0 15.0 15.0 15.0 15.0 15.0 15.0 15.0
15.0 15.0 15.0 15.0 15.0 15.0 3.1 15.0 5.6 3.4 14.8 15.0 12.7 10.3 15.0 15.0 15.0 15.0 15.0 15.0 15.0 15.0 15.0 15.0 15.0 15.0 15.0 13.0 8.2 13.8 8.2 15.0 15.0 15.0 15.0 15.0 10.9 15.0 15.0 15.0 15.0 15.0 15.0 15.0 15.0
15.0 15.0 7.9 15.0 15.0 15.0 8.8 7.8 11.4 2.8 6.6 14.9 15.0 15.0 15.0 15.0 15.0 15.0 15.0 15.0 15.0 15.0 15.0 15.0 15.0 11.2 15.0 15.0 15.0 15.0 15.0 15.0 15.0 15.0 13.2 15.0 15.0 15.0 15.0 15.0 15.0 15.0 15.0 15.0 15.0
10.2 7.3 9.8 15.0 15.0 15.0 15.0 4.4 4.3 1.6 14.4 12.1 15.0 15.0 15.0 15.0 15.0 15.0 15.0 15.0 15.0 15.0 15.0 14.5 10.3 15.0 15.0 15.0 15.0 3.7 0.1 7.3 15.0 15.0 0.4 5.8 11.4 15.0 15.0 15.0 15.0 15.0 12.9 15.0 12.1
11.0 10.1 9.5 12.8 15.0 15.0 15.0 3.4 6.7 11.9 2.7 13.7 15.0 15.0 15.0 15.0 15.0 15.0 15.0 15.0 15.0 15.0 15.0 8.3 12.2 15.0 15.0 15.0 6.7 15.0 0.1 12.9 9.4 15.0 15.0 11.3 0.2 15.0 15.0 15.0 15.0 9.2 8.2 15.0 15.0
9.8 5.9 6.4 15.0 15.0 15.0 15.0 14.5 12.3 6.7 0.0 0.0 6.9 15.0 15.0 15.0 15.0 15.0 15.0 15.0 15.0 15.0 15.0 15.0 15.0 15.0 15.0 15.0 6.1 0.0 2.4 0.1 3.5 0.0 0.3 15.0 6.8 15.0 15.0 15.0 14.3 8.6 12.7 3.3 13.7
15.0 9.6 14.2 15.0 15.0 15.0 15.0 12.4 5.2 15.0 0.1 1.0 15.0 15.0 15.0 15.0 15.0 15.0 15.0 15.0 15.0 15.0 15.0 15.0 15.0 15.0 0.5 0.4 6.1 0.0 15.0 15.0 5.3 8.2 0.0 14.7 0.0 1.5 15.0 15.0 15.0 15.0 15.0 15.0 5.8
14.9 15.0 15.0 15.0 15.0 15.0 15.0 15.0 11.1 14.1 0.2 0.1 8.5 15.0 15.0 15.0 15.0 15.0 15.0 15.0 15.0 15.0 15.0 15.0 15.0 15.0 5.9 15.0 15.0 13.7 10.1 0.4 3.6 0.4 0.1 15.0 1.1 0.3 15.0 11.0 15.0 15.0 10.0 15.0 15.0
10.6 15.0 15.0 15.0 13.8 15.0 15.0 15.0 15.0 7.2 0.5 1.3 5.5 15.0 15.0 15.0 15.0 15.0 15.0 15.0 7.4 6.8 9.2 15.0 15.0 15.0 15.0 6.6 15.0 6.7 0.0 0.0 0.0 0.1 0.0 10.7 7.3 2.8 6.1 15.0 15.0 15.0 7.8 1.6 15.0
6.2 12.1 15.0 14.1 15.0 15.0 15.0 15.0 12.7 0.3 14.7 15.0 15.0 15.0 15.0 15.0 15.0 15.0 15.0 15.0 15.0 15.0 0.1 0.1 3.5 15.0 15.0 13.3 0.1 0.2 0.0 0.0 0.1 0.1 0.1 8.1 1.0 0.0 1.0 15.0 15.0 4.9 6.6 2.5 2.1
15.0 15.0 15.0 11.6 15.0 15.0 15.0 0.8 0.1 1.8 15.0 15.0 12.9 14.5 15.0 15.0 15.0 15.0 15.0 15.0 15.0 15.0 0.0 3.8 0.3 15.0 15.0 15.0 15.0 10.5 0.0 5.0 0.0 15.0 0.2 0.1 0.0 0.0 0.1 5.9 15.0 15.0 9.0 3.4 3.7
15.0 15.0 15.0 15.0 15.0 15.0 15.0 0.0 3.0 15.0 15.0 15.0 15.0 15.0 15.0 15.0 15.0 15.0 15.0 15.0 15.0 15.0 15.0 4.1 0.1 15.0 15.0 15.0 15.0 15.0 15.0 14.6 0.6 0.1 0.1 0.1 0.1 0.0 0.0 0.0 0.4 5.4 4.7 12.9 8.4
15.0 8.6 10.2 15.0 15.0 15.0 0.4 0.0 0.0 12.8 15.0 15.0 15.0 15.0 15.0 15.0 15.0 15.0 15.0 15.0 15.0 15.0 15.0 15.0 4.8 13.3 15.0 15.0 15.0 15.0 15.0 15.0 15.0 15.0 14.2 10.7 0.1 0.8 0.1 0.2 0.1 14.3 13.7 13.5 5.9
15.0 0.3 10.0 15.0 0.7 0.1 0.0 0.1 14.1 15.0 15.0 15.0 15.0 15.0 15.0 15.0 15.0 15.0 15.0 15.0 15.0 15.0 14.2 15.0 15.0 15.0 15.0 15.0 15.0 15.0 15.0 15.0 15.0 15.0 15.0 15.0 1.4 15.0 14.8 14.8 12.4 15.0 15.0 15.0 15.0
1.2 3.3 15.0 15.0 11.4 0.0 0.1 15.0 15.0 15.0 15.0 15.0 15.0 15.0 15.0 15.0 15.0 15.0 15.0 15.0 15.0 15.0 15.0 15.0 15.0 15.0 15.0 15.0 15.0 15.0 15.0 15.0 15.0 15.0 15.0 15.0 1.4 15.0 15.0 15.0 10.2 13.2 15.0 15.0 15.0
2.4 0.1 8.1 15.0 15.0 4.1 15.0 15.0 15.0 15.0 15.0 15.0 15.0 15.0 15.0 15.0 15.0 15.0 15.0 15.0 15.0 15.0 15.0 15.0 15.0 15.0 15.0 15.0 15.0 15.0 15.0 15.0 15.0 15.0 15.0 15.0 15.0 15.0 15.0 15.0 15.0 15.0 15.0 15.0 15.0
15.0 15.0 14.7 0.9 15.0 3.2 15.0 15.0 15.0 15.0 15.0 15.0 15.0 15.0 15.0 15.0 15.0 15.0 15.0 15.0 15.0 15.0 15.0 15.0 15.0 15.0 15.0 15.0 15.0 15.0 15.0 15.0 15.0 15.0 15.0 15.0 15.0 15.0 15.0 15.0 15.0 15.0 15.0 15.0 15.0
15.0 15.0 15.0 15.0 15.0 15.0 15.0 15.0 15.0 15.0 15.0 15.0 15.0 15.0 15.0 15.0 15.0 15.0 15.0 15.0 15.0 15.0 15.0 15.0 15.0 15.0 15.0 15.0 15.0 15.0 15.0 15.0 15.0 15.0 15.0 15.0 15.0 15.0 15.0 15.0 15.0 15.0 15.0 15.0 15.0
15.0 15.0 15.0 15.0 15.0 15.0 15.0 15.0 15.0 15.0 15.0 15.0 15.0 15.0 15.0 15.0 15.0 15.0 15.0 15.0 15.0 15.0 15.0 15.0 15.0 15.0 15.0 15.0 15.0 15.0 15.0 15.0 15.0 15.0 15.0 15.0 15.0 15.0 15.0 15.0 15.0 15.0 15.0 15.0 15.0